Theta_e
326 319 320 314 300 297 294 298 304 308 310 315 319 318 315 316 311 305 327 333 335 336 341 342 344 345 342 340 339 339 338 337 336 336 335 335 335 335 334 334 334 334 334 334 334 334 333 333 332
322 320 314 306 295 290 291 298 301 309 315 320 320 318 316 312 322 325 327 333 337 338 340 340 341 343 340 339 339 339 337 336 336 336 335 334 334 334 333 333 333 333 333 334 334 334 334 334 334
317 318 308 301 294 290 292 297 299 312 318 316 317 319 316 316 323 326 330 334 337 338 339 338 340 341 338 338 339 339 338 336 335 335 334 334 334 334 334 333 332 333 333 334 335 335 334 335 335
312 310 305 297 294 297 296 299 308 312 314 319 318 313 319 324 326 329 332 336 336 337 337 338 340 341 339 339 339 338 336 335 335 334 334 334 334 333 334 334 334 334 335 335 335 336 335 335 336
309 305 297 292 293 299 299 303 308 313 312 315 317 314 314 322 329 332 331 333 334 334 336 338 339 340 340 339 337 336 335 334 334 334 334 334 333 333 333 334 334 335 335 335 335 335 335 335 336
303 302 293 291 295 300 299 303 307 313 317 317 315 314 316 327 329 330 331 329 335 333 337 338 335 337 338 338 338 337 336 334 334 334 333 333 334 334 334 334 334 335 335 336 335 335 335 335 335
301 297 293 294 296 299 302 303 306 313 316 316 319 312 318 325 330 331 329 332 333 334 335 335 337 335 333 335 335 336 336 336 335 334 334 333 333 333 332 332 332 334 335 335 335 335 335 335 335
304 299 295 295 296 298 304 302 307 314 315 322 321 312 314 319 322 327 329 330 331 333 333 333 335 335 333 331 330 332 333 334 334 333 331 329 329 330 330 329 332 333 334 334 334 335 336 336 335
307 295 293 296 298 300 307 302 309 321 317 320 323 319 321 320 328 327 327 328 329 331 332 332 333 332 330 328 326 327 329 330 329 328 326 326 330 328 328 326 331 333 335 335 336 336 335 333 331
301 294 296 302 302 302 307 304 303 313 316 315 316 321 322 318 325 323 323 323 325 327 330 330 329 329 327 329 326 326 327 327 327 329 332 331 330 329 328 325 324 328 329 334 335 334 327 322 325
302 298 301 303 305 306 306 304 306 309 311 315 316 318 318 315 321 322 322 324 324 327 329 328 326 328 326 325 325 325 325 326 324 327 329 330 330 329 323 320 319 318 320 323 321 314 309 309 311
300 303 304 306 307 306 303 306 305 311 314 320 321 321 317 314 316 321 322 321 322 324 328 327 324 325 325 324 325 324 325 322 320 321 326 328 325 318 312 310 310 311 313 311 305 305 303 302 305
302 305 307 307 307 306 307 304 304 311 317 321 321 320 316 315 315 319 318 320 321 320 322 322 324 326 329 324 323 320 317 315 317 317 319 322 317 312 309 307 305 304 303 302 301 300 299 299 301
303 304 306 308 307 307 305 304 310 312 319 319 319 316 314 314 315 316 316 317 319 319 322 323 326 329 327 323 318 314 312 313 312 312 313 314 314 308 306 304 302 301 300 300 300 298 297 296 298
303 298 301 303 306 304 307 301 303 313 320 318 317 316 314 315 316 316 316 316 317 320 321 323 323 323 320 315 312 310 312 310 308 308 308 309 306 303 303 302 300 298 299 299 298 296 295 295 297
296 297 291 298 302 303 303 295 302 316 317 316 316 316 314 316 316 315 315 316 317 319 320 322 323 316 313 309 307 305 305 304 305 304 305 305 305 303 301 298 297 297 297 297 296 295 293 293 294
290 285 289 292 300 300 301 297 303 313 314 315 315 316 315 307 309 310 314 315 315 318 318 319 316 311 308 306 305 303 302 303 302 302 302 301 300 300 298 296 296 296 295 295 295 293 292 291 292
280 282 288 290 295 299 297 297 301 306 313 314 314 313 310 307 307 309 311 313 314 315 318 314 311 308 306 304 303 302 301 300 299 298 300 299 298 298 296 295 294 295 294 293 293 292 292 290 290
288 286 287 291 295 293 295 295 296 299 306 312 310 309 308 308 305 307 309 310 313 317 315 310 308 306 305 303 301 300 298 297 297 297 298 297 296 296 295 293 293 293 291 290 292 292 289 289 289
288 286 284 289 292 291 292 292 295 297 298 307 309 308 307 302 303 304 306 309 313 316 314 311 307 306 307 306 302 300 298 297 296 296 296 295 295 294 294 292 291 291 290 289 289 289 289 289 288
285 285 285 285 289 292 290 288 290 297 298 298 309 309 307 302 303 303 304 305 308 311 311 309 307 307 306 302 300 298 296 295 294 293 293 294 294 293 292 291 291 290 289 288 288 288 288 287 287
282 288 288 287 284 280 288 280 289 293 294 296 302 305 304 303 303 304 302 302 304 305 307 307 306 304 302 301 299 296 294 292 293 293 292 292 292 291 291 291 290 289 289 288 288 288 287 286 283
284 290 286 288 285 282 282 281 287 290 289 293 295 303 301 301 301 302 301 302 301 301 302 302 301 302 301 300 299 297 295 294 293 292 291 291 290 290 290 289 289 288 288 287 287 286 285 285 284
290 288 288 288 285 277 282 282 283 288 291 293 297 302 301 300 300 300 300 299 298 300 301 301 301 299 300 300 299 296 294 293 291 290 289 288 288 288 288 288 287 287 287 286 286 285 283 283 283
287 284 276 275 275 275 283 282 285 292 295 296 297 299 301 300 298 296 295 296 295 297 299 300 300 298 299 298 297 296 295 294 291 291 289 287 287 287 286 286 285 285 285 285 285 284 283 282 281
284 284 276 268 270 272 284 280 284 293 298 300 301 302 299 298 295 295 296 295 295 296 297 298 298 297 298 297 296 295 295 293 292 291 290 288 287 286 286 285 285 285 285 284 284 283 282 282 281
284 280 286 279 278 276 282 286 291 293 295 298 298 294 294 294 294 293 294 294 295 295 295 296 296 296 296 296 295 294 293 292 291 290 289 288 286 287 286 285 285 284 284 284 283 282 281 281 281
284 289 279 280 272 273 280 282 283 288 291 296 297 294 294 294 294 293 294 293 294 295 295 295 295 294 294 293 293 292 291 290 290 289 288 287 287 286 285 284 284 284 283 283 283 281 281 281 281
282 282 283 282 281 275 275 280 288 287 292 294 296 296 294 294 293 293 293 293 292 292 292 292 292 292 292 292 291 290 290 289 289 288 287 286 286 286 285 284 284 283 282 282 282 281 281 280 280
287 282 282 275 275 281 279 280 288 287 288 295 293 293 293 294 293 293 292 290 290 290 290 290 290 290 290 290 289 289 289 288 287 287 286 286 285 285 284 283 283 282 281 281 280 280 280 279 279
Wind_Speed
7 5 4 5 4 4 4 7 3 3 2 3 2 6 9 4 4 5 4 7 14 13 11 13 19 19 18 17 16 16 16 16 15 14 14 13 13 12 12 11 10 10 10 10 10 10 10 9 9
4 2 5 2 3 1 6 5 5 5 4 12 9 4 5 3 4 8 10 13 16 13 12 12 17 18 18 17 17 16 17 16 15 14 13 12 12 11 11 10 9 9 9 9 10 9 9 9 9
2 3 4 3 3 4 6 5 5 5 11 4 7 6 4 8 5 10 10 14 14 12 11 11 15 16 17 17 17 16 15 16 15 14 13 12 11 10 9 9 9 8 9 9 9 9 8 8 8
2 5 4 4 7 8 6 5 7 2 2 5 6 9 3 4 13 9 16 16 15 13 11 12 16 17 17 16 16 15 15 15 14 13 12 11 10 9 8 8 7 7 7 8 8 8 8 7 7
4 3 0 3 7 7 3 6 7 6 3 3 1 6 4 6 8 19 16 14 15 13 11 11 16 17 17 16 16 15 14 14 13 12 11 10 9 8 8 7 6 6 5 6 6 6 6 5 6
3 2 3 4 7 8 5 6 5 3 1 4 6 7 6 9 16 14 15 10 13 14 11 11 13 15 16 15 14 13 13 12 11 10 9 8 8 8 7 6 5 4 5 5 5 6 6 5 6
4 3 5 6 5 8 5 4 4 9 7 5 10 5 4 15 16 13 11 13 12 13 10 8 11 11 12 12 11 12 12 11 10 9 7 6 5 5 4 4 3 4 5 5 6 6 6 5 4
5 4 5 6 7 12 4 3 6 4 7 5 5 8 7 17 15 14 13 14 13 12 11 9 9 10 9 7 11 11 11 10 9 8 7 6 4 2 2 3 3 4 4 3 5 5 7 10 10
4 2 7 8 8 8 4 2 5 6 7 2 4 9 7 19 19 16 15 12 12 10 12 10 10 8 8 7 7 9 11 9 7 5 5 3 3 4 2 3 5 5 7 5 4 8 8 7 7
6 5 8 6 5 7 12 2 0 3 8 1 4 6 20 21 20 20 19 17 15 14 14 13 11 11 8 6 6 5 5 4 3 3 3 2 4 5 6 6 7 6 5 8 9 8 11 8 4
5 11 5 5 7 8 15 5 3 6 10 10 18 24 23 19 17 17 17 17 15 16 12 13 13 12 9 6 4 2 2 2 3 3 3 4 4 5 3 3 3 3 7 4 6 6 5 7 5
11 6 4 2 4 5 8 7 10 8 13 10 19 33 26 23 20 20 17 16 16 15 16 14 11 11 9 6 4 4 3 3 2 3 4 4 4 5 4 3 4 4 3 5 5 4 5 6 6
13 14 10 5 8 7 9 9 11 10 9 7 11 22 26 23 18 14 14 12 15 14 13 13 12 11 10 8 4 4 4 3 3 4 4 4 5 4 4 5 4 4 4 4 5 5 5 6 6
10 12 13 12 11 10 12 15 5 4 5 14 18 20 22 24 20 16 16 16 15 13 13 11 15 11 9 8 7 5 5 4 3 4 4 5 4 5 5 4 5 5 4 4 4 5 4 4 4
7 16 17 15 9 9 9 19 15 6 11 16 20 16 14 13 14 20 18 18 15 13 10 13 10 11 11 10 7 5 5 4 4 4 5 6 5 6 6 5 5 4 4 5 5 5 5 5 4
6 10 15 5 13 9 6 23 7 9 17 18 16 16 15 14 14 8 10 13 10 11 11 8 10 11 12 10 7 6 4 4 5 5 5 7 6 7 6 5 4 4 4 4 4 4 4 4 4
6 13 13 12 14 6 14 19 11 13 14 19 17 19 17 9 9 8 10 12 11 11 9 11 12 12 12 11 9 7 7 6 5 5 5 7 7 7 6 5 4 5 4 5 4 6 4 4 4
7 8 12 9 2 7 15 19 12 6 16 20 17 16 16 17 12 12 12 12 12 10 11 12 9 12 12 10 9 7 7 6 5 5 5 7 5 7 6 5 5 4 4 4 4 6 6 4 4
13 16 18 12 3 6 14 14 10 11 14 20 18 19 18 15 10 10 11 10 12 12 13 13 14 12 11 9 9 6 6 5 5 5 6 6 6 6 6 5 5 5 6 4 4 3 6 7 4
15 16 18 13 12 7 12 18 9 14 11 16 20 19 20 14 14 11 11 11 10 15 13 13 12 13 10 8 6 5 7 5 5 4 6 5 6 5 7 6 5 5 5 6 6 4 2 4 6
13 16 18 15 2 9 9 9 16 9 11 13 18 21 20 24 20 15 14 11 8 11 13 13 13 14 10 11 10 9 9 6 4 4 4 5 6 6 7 6 6 6 4 5 5 5 5 4 4
16 6 18 14 8 9 3 6 9 11 9 8 13 20 18 18 17 17 13 13 10 7 9 12 12 12 12 13 12 16 8 9 4 4 3 5 6 7 7 7 6 6 5 6 5 5 4 4 3
13 8 20 16 11 9 7 7 2 9 6 8 9 12 21 19 20 19 16 13 10 8 8 9 12 11 11 8 11 9 10 7 7 6 7 6 5 7 7 7 7 6 5 6 6 5 6 4 4
4 8 15 5 7 10 13 12 6 10 14 13 11 4 12 19 17 16 12 12 10 9 9 10 12 11 12 11 11 11 13 12 8 7 5 3 4 4 6 7 6 6 6 6 5 5 7 5 5
5 6 4 4 5 6 9 10 16 9 14 17 19 12 15 16 18 16 20 13 12 13 12 11 12 11 11 12 13 13 12 10 9 9 5 6 4 3 5 6 5 5 6 6 5 5 6 5 4
8 6 4 6 3 5 8 11 6 4 6 10 13 17 17 12 14 17 17 16 13 14 13 12 12 12 12 14 14 13 9 6 7 6 4 4 3 4 5 5 5 7 6 5 5 3 4 5 4
0 6 4 6 3 3 5 5 5 1 4 7 15 16 18 15 10 14 12 13 10 13 14 15 12 10 11 13 12 11 10 8 7 7 4 4 4 5 6 6 7 6 6 5 5 3 5 5 3
2 3 1 1 4 6 2 2 2 3 4 9 13 14 14 13 12 11 11 13 10 8 10 17 12 8 11 12 12 10 11 9 8 8 7 7 5 5 6 6 6 5 5 5 5 4 3 4 1
4 6 5 2 4 3 7 3 3 5 3 4 12 14 16 14 14 12 10 11 13 10 9 12 14 9 8 10 9 11 10 8 7 6 6 6 5 6 6 6 6 5 5 4 4 3 3 2 1
3 4 7 3 4 3 3 6 6 7 6 3 8 9 10 11 12 11 12 10 11 13 10 12 11 10 7 9 11 11 11 9 8 7 6 6 7 5 6 6 5 5 5 4 4 3 2 2 2
Wind_Direction
314 338 88 45 28 58 248 245 291 177 103 8 132 145 144 73 151 203 156 133 142 145 144 144 144 136 138 136 129 121 119 120 120 116 114 112 110 107 103 96 92 88 86 81 77 72 67 61 56
310 29 50 71 86 315 265 260 218 216 168 128 90 95 83 117 109 120 124 151 145 142 140 137 136 137 140 136 131 128 129 129 126 123 119 115 109 105 103 99 92 85 83 77 70 66 61 54 47
313 29 90 120 148 204 242 287 228 187 189 131 106 62 127 141 117 142 131 143 139 134 134 134 135 136 136 135 132 133 134 133 130 127 122 119 115 109 103 96 89 84 77 73 67 64 59 49 42
358 14 30 134 235 249 213 296 356 9 239 38 109 84 72 206 153 150 142 146 141 135 133 136 138 137 136 137 137 134 133 133 131 129 128 124 117 109 103 95 88 74 65 62 56 51 45 36 30
17 77 143 243 246 250 182 260 238 235 209 131 152 139 90 130 128 139 144 149 140 134 138 139 140 139 140 140 139 139 138 134 133 131 130 126 124 121 115 109 100 88 77 69 65 61 51 33 24
12 69 138 232 262 276 296 271 276 277 175 157 87 112 155 128 132 154 147 146 141 138 143 146 141 142 144 145 140 135 135 134 133 134 134 136 136 135 131 121 105 87 72 64 59 53 45 27 28
147 125 220 198 248 287 263 293 260 208 169 207 142 95 135 146 152 151 145 133 138 137 135 139 146 145 138 135 134 135 135 137 141 145 149 155 159 153 133 115 72 54 47 43 41 40 36 24 16
148 142 201 215 219 262 248 321 300 239 235 88 154 151 180 169 146 141 141 137 142 138 137 140 141 143 136 141 141 140 141 147 156 166 173 187 183 161 128 69 53 54 32 39 49 40 45 42 52
159 193 218 208 204 260 213 333 341 329 162 212 173 154 167 141 137 138 144 142 143 149 146 144 146 140 139 138 150 148 155 157 164 178 197 233 206 188 137 77 51 62 26 70 51 68 73 70 63
182 208 217 200 205 250 276 181 356 34 275 172 102 73 143 142 155 155 158 154 159 159 158 152 152 149 147 152 157 162 162 158 161 199 193 145 93 85 95 76 56 49 38 73 73 71 52 30 34
216 241 210 229 228 252 275 262 220 236 238 250 165 150 160 156 162 161 161 161 157 157 158 161 156 153 156 157 167 160 158 130 102 77 84 102 90 85 68 58 30 20 29 35 48 44 39 36 27
267 236 211 224 293 331 298 301 282 218 233 253 179 161 163 163 170 168 166 160 159 161 160 161 159 158 167 158 166 143 133 112 104 77 70 86 88 83 78 67 40 43 25 61 52 51 41 42 43
264 268 273 251 295 271 288 279 272 241 261 163 195 160 169 170 163 162 147 153 154 158 156 162 159 168 170 152 132 113 111 91 85 73 60 91 98 92 84 74 63 49 39 51 53 54 47 35 30
311 298 276 267 273 287 284 287 209 214 150 158 172 173 172 173 160 147 151 159 157 157 151 154 170 170 137 124 124 117 103 103 77 72 71 76 95 97 79 70 63 55 50 44 62 60 53 49 36
283 279 279 250 239 266 351 285 237 179 166 176 175 166 175 157 159 163 158 159 154 161 154 152 132 129 120 119 106 98 111 109 94 85 71 79 80 94 91 84 69 50 49 64 58 52 44 51 40
288 269 262 205 229 229 130 258 237 183 168 185 183 168 177 166 166 163 146 146 150 151 161 135 131 127 123 118 107 100 95 91 84 77 73 72 77 88 91 87 71 52 51 57 58 42 52 55 58
242 263 265 268 215 243 202 267 266 194 207 185 184 175 167 146 140 151 152 148 147 147 141 128 134 132 121 114 112 107 98 83 72 71 75 77 69 74 86 76 62 49 55 47 47 42 50 38 42
247 254 249 253 342 227 231 246 292 278 235 192 179 176 173 164 162 158 151 148 139 134 133 130 131 125 122 115 113 103 93 87 81 72 72 76 79 81 87 80 69 55 63 55 61 65 38 41 21
266 274 273 266 29 283 237 240 257 284 273 202 185 174 169 169 147 148 145 142 130 136 138 141 137 144 136 136 128 121 120 108 90 86 83 85 87 85 90 87 76 57 63 55 52 89 58 40 9
271 277 263 252 277 250 272 240 197 267 263 261 185 186 169 149 148 158 141 148 158 147 148 147 149 152 149 146 128 115 127 99 102 96 87 80 82 89 90 91 88 81 79 50 39 46 89 58 16
262 263 265 257 256 244 276 254 234 206 270 342 224 190 178 159 166 167 159 148 149 144 157 153 156 150 151 136 122 111 103 109 110 109 98 80 89 90 91 82 82 78 76 75 56 44 68 112 36
269 281 248 231 237 252 237 279 225 184 218 304 290 174 177 170 169 162 167 150 157 139 148 148 150 149 145 146 146 146 146 147 143 130 108 107 91 92 88 87 81 75 68 72 69 50 59 86 84
270 213 263 247 226 248 210 264 251 146 207 209 305 242 172 174 170 167 165 157 144 133 141 138 139 142 139 141 142 136 122 107 116 120 117 108 100 91 94 95 92 87 83 76 77 64 62 55 81
272 255 249 263 228 237 235 218 194 189 203 194 193 272 232 174 170 151 142 141 142 139 136 143 136 135 135 134 116 115 122 120 124 129 126 119 104 100 98 98 95 94 92 84 80 80 75 74 75
244 271 276 239 221 237 198 215 240 241 193 191 184 190 203 196 161 159 147 158 151 149 142 142 144 132 124 119 117 121 126 133 147 133 154 140 125 110 112 104 103 97 96 93 92 85 82 73 77
290 231 268 257 228 277 160 224 237 304 189 173 173 175 161 205 164 166 157 150 157 148 149 139 141 142 140 130 124 122 134 138 135 122 172 121 123 141 114 113 106 101 102 99 99 98 101 86 78
357 225 202 263 263 204 238 282 287 278 130 137 160 157 168 161 183 153 150 136 155 155 143 135 140 131 141 136 129 135 137 144 130 130 121 114 140 127 130 123 108 107 110 114 109 104 87 94 96
200 330 243 198 284 267 258 274 220 267 175 188 180 171 168 157 156 153 149 137 134 146 149 120 118 147 138 132 136 134 131 131 137 132 145 150 136 134 135 117 111 113 117 116 111 96 104 114 142
11 318 231 235 222 256 310 278 273 288 295 179 174 181 166 164 156 145 139 130 126 133 130 120 114 134 142 124 118 133 126 115 121 138 149 134 144 142 128 123 127 132 133 119 117 138 153 143 178
112 222 276 182 293 229 238 269 297 330 328 179 160 159 149 146 137 141 142 135 135 123 132 130 119 131 144 132 133 131 131 136 136 146 145 154 143 134 131 125 137 145 146 140 160 182 155 200 249